User: anonymous   Login
Location: Conflandey
(47.7287°N, 6.0456°E)
Time: 07:23:29
(UTC+00:00)
Language:

Cosmos 1943 Rocket - Orbit

View from above orbital plane
View from above orbital plane
View from above satellite
View from above satellite

Ground track
Ground track

The orbit data is extracted from the following two-line orbital elements,

1 19120U 88039B   22024.38859809 -.00000160  00000-0 -53158-4 0  9996
2 19120  71.0157  10.3938 0020140 133.2101 227.0711 14.19232284744784
Epoch (UTC): 24 January 2022 09:19:34
Eccentricity: 0.0020140
inclination: 71.0157°
perigee height: 813 km
apogee height: 842 km
right ascension of ascending node: 10.3938°
argument of perigee: 133.2101°
revolutions per day: 14.19232284
mean anomaly at epoch: 227.0711°
orbit number at epoch: 74478

The dashed part of the orbit path shows where the satellite is in the earth's shadow,  

DLR